User: anonymous   Login
Location: Robledo de Chavela
(40.5014°N, 4.2377°W)
Time: 00:12:42
(UTC+00:00)
Language:

Okean 2 Rocket - Orbit

View from above orbital plane
View from above orbital plane
View from above satellite
View from above satellite

Ground track
Ground track

The orbit data is extracted from the following two-line orbital elements,

1 20511U 90018B   24175.84971003  .00000561  00000-0  69262-4 0  9999
2 20511  82.5222  85.7959 0016268 349.3924  10.6944 14.81078102851293
Epoch (UTC): 23 June 2024 20:23:34
Eccentricity: 0.0016268
inclination: 82.5222°
perigee height: 614 km
apogee height: 637 km
right ascension of ascending node: 85.7959°
argument of perigee: 349.3924°
revolutions per day: 14.81078102
mean anomaly at epoch: 10.6944°
orbit number at epoch: 85129

The dashed part of the orbit path shows where the satellite is in the earth's shadow,  

DLR